Miscellaneous Local Product
Issued by NWS Hastings, NE

Home | Current Version | Previous Version | Text Only | Print | Product List | Glossary Off
Versions: 1 2 3 4 5 6 7 8 9 10 11 12 13 14 15 16 17 18 19 20 21 22 23 24 25 26 27 28 29 30 31 32 33 34 35 36 37 38 39 40 41 42 43 44 45 46 47 48 49 50

000
AXUS43 KGID 251002
MISGRI

GID CWA HOURLY WEATHER ROUNDUP
NATIONAL WEATHER SERVICE HASTINGS NE
500 AM CDT FRI JUL 25 2014

NOTE: "FAIR" INDICATES FEW OR NO CLOUDS BELOW 12,000 FEET WITH NO
SIGNIFICANT WEATHER AND/OR OBSTRUCTIONS TO VISIBILITY.

...SOUTH CENTRAL NEBRASKA...

CITY           SKY/WX    TMP DP  RH WIND       PRES   REMARKS
GRAND ISLAND   CLEAR     77  69  76 S15       29.74F
HASTINGS       MOCLDY    77  67  71 S16G22    29.76F
KEARNEY        PTCLDY    73  68  83 S14       29.76F
ORD            CLEAR     70  68  93 SE5       29.72F
YORK           PTCLDY    72  68  88 S9        29.76F
AURORA         PTCLDY    74  71  91 S10       29.74F
LEXINGTON      CLEAR     72  69  90 S5        29.78F
HOLDREGE       PTCLDY    77  65  68 S14       29.79F
HEBRON         MOCLDY    76  67  74 S7        29.80F

...NEBRASKA PANHANDLE...

CITY           SKY/WX    TMP DP  RH WIND       PRES   REMARKS
CHADRON        CLEAR     65  57  75 W6        29.91R
ALLIANCE       CLEAR     69  53  56 NW14      29.90R
SCOTTSBLUFF    CLEAR     66  56  70 NW8       29.93R
SIDNEY         CLEAR     66  53  63 NW13      29.96R

...WESTERN AND NORTH CENTRAL NEBRASKA...

CITY           SKY/WX    TMP DP  RH WIND       PRES   REMARKS
VALENTINE      PTCLDY    72  61  68 SW10      29.74R
AINSWORTH      CLEAR     71  69  93 SW12G18   29.74R
ONEILL         CLEAR     73  66  80 S12       29.72S
BROKEN BOW     CLEAR     77  69  76 SW8       29.76F
IMPERIAL       PTCLDY    67  58  72 SW5       29.87R
NORTH PLATTE   CLEAR     65  60  84 CALM      29.79F
MCCOOK         PTCLDY    70  57  63 SW10      29.81S

...EASTERN NEBRASKA...

CITY           SKY/WX    TMP DP  RH WIND       PRES   REMARKS
NORFOLK        CLEAR     74  67  78 S23G32    29.69F
SO SIOUX CITY  PTCLDY    74  66  76 E10       29.74R
TEKAMAH        MOCLDY    79  66  64 S14       29.72R
COLUMBUS       CLEAR     73  64  73 S13G20    29.73F
ALBION         CLEAR     71  66  85 SE7       29.73S
OMAHA EPPLEY   CLOUDY    80  67  64 S20G30    29.75R
OFFUTT AFB     CLOUDY    75  70  85 S12G17    29.76R
MILLARD        MOCLDY    76  68  75 S8        29.76S
LINCOLN        MOCLDY    73  66  78 S13       29.76F
NEBRASKA CITY  CLOUDY    68  62  80 S12       29.80F
BEATRICE       MOCLDY    71  67  86 E5        29.80F
FALLS CITY     MOCLDY    71  61  70 S13       29.82F

...NORTHERN KANSAS...

CITY           SKY/WX    TMP DP  RH WIND       PRES   REMARKS
GOODLAND       CLOUDY    73  53  49 W8        29.91R
HILL CITY      CLOUDY    82  63  52 SW14      29.83F
NORTON         SUNNY     81  54  39 S17G24    29.80S
PHILLIPSBURG   CLEAR     82  64  54 S9        29.82S
SMITH CENTER   CLEAR     75  66  73 S9        29.82F
HAYS           PTCLDY    70  63  78 S18G24    29.85F
RUSSELL        PTCLDY    78  67  68 S18       29.83F
CONCORDIA      PTCLDY    78  71  79 S21G26    29.81F
SALINA         CLEAR     79  69  71 S18       29.85F
TOPEKA         MOCLDY    77  70  79 CALM      29.85F



USA.gov is the U.S. government's official web portal to all federal, state and local government web resources and services.